Torna al catalogo

NIMBUS 2 DEB

AttivoLEO
NORAD 28610·DEBRIS·🇺🇸 United States

Lanciato May 15, 1966 da Vandenberg Space Force Base

Loading…

Prossimi Passaggi (prossime 24 ore)

TLE

AggiornatoSource: Space-Track

Epoca: Sep 12, 2026, 13:32 UTC

1 28610U 66040Z   26255.56429797  .00001555  00000-0  20367-2 0  9998
2 28610 100.5024 355.6455 0079856 279.1028  92.9863 13.62102047638671

Traccia NIMBUS 2 DEB in tempo reale con AllMySat

Download on the App Store